XAX320 WMKK-ZUTF

Flight info

Callsign XAX320
Flight time N/A
Altitude 38000
Route BIKDU1D BIKDU Y501 VIH R325 VAS M769 RIGTO/N0474F390 M769 DANDO/N0476F380 M769 BKK/N0474F390 B346 LPB B218 SAGAG/K0876S1220 A581 BIDRU/K0874S1190 A581 SGM W144 VEDPO/K0874S1220 W144 IGNAK IGNAK4E
Aircraft A333/H-SDE3GHIJ2J3J5M1RVWXY/LB2D1

Departure

Time N/A
Airport Kuala Lumpur International Airport (WMKK)

Arrival

Time 2026-05-05 14:50
Airport Chengdu Tianfu International Airport (ZUTF)
Time Latitude Longitude Altitude Speed Heading
2026-05-05 10:59 4.11717 101.29731 24029 ft 464 kts 337°
2026-05-05 11:00 4.14674 101.28414 24242 ft 466 kts 337°
2026-05-05 11:00 4.17637 101.27094 24450 ft 467 kts 337°
2026-05-05 11:00 4.20611 101.25769 24683 ft 468 kts 337°
2026-05-05 11:00 4.23592 101.24441 24896 ft 470 kts 337°
2026-05-05 11:01 4.26584 101.23108 25104 ft 471 kts 337°
2026-05-05 11:01 4.29583 101.21772 25329 ft 472 kts 337°
2026-05-05 11:01 4.32588 101.20435 25551 ft 474 kts 337°
2026-05-05 11:01 4.35602 101.19092 25775 ft 475 kts 337°
2026-05-05 11:02 4.38625 101.17746 25973 ft 476 kts 337°
2026-05-05 11:02 4.41660 101.16394 26175 ft 478 kts 337°
2026-05-05 11:02 4.44734 101.15145 26274 ft 478 kts 345°
2026-05-05 11:02 4.47875 101.14005 26323 ft 481 kts 345°
2026-05-05 11:03 4.51025 101.12846 26420 ft 482 kts 344°
2026-05-05 11:03 4.54158 101.11624 26549 ft 483 kts 343°
2026-05-05 11:03 4.57268 101.10338 26691 ft 484 kts 342°
2026-05-05 11:03 4.60370 101.09023 26825 ft 484 kts 342°
2026-05-05 11:04 4.63474 101.07695 26943 ft 485 kts 342°
2026-05-05 11:04 4.66585 101.06355 27065 ft 486 kts 342°
2026-05-05 11:04 4.69687 101.05016 27211 ft 487 kts 342°
2026-05-05 11:04 4.72804 101.03671 27326 ft 488 kts 342°
2026-05-05 11:05 4.75924 101.02324 27453 ft 489 kts 342°
2026-05-05 11:05 4.77996 101.01430 27524 ft 489 kts 342°
2026-05-05 11:05 4.82185 100.99623 27687 ft 491 kts 342°
2026-05-05 11:05 4.85323 100.98270 27818 ft 491 kts 342°
2026-05-05 11:06 4.87399 100.97375 27895 ft 492 kts 342°
2026-05-05 11:06 4.90545 100.96018 28004 ft 492 kts 342°
2026-05-05 11:06 4.93695 100.94661 28101 ft 493 kts 342°
2026-05-05 11:06 4.96843 100.93302 28230 ft 494 kts 342°
2026-05-05 11:07 5.00000 100.91940 28348 ft 494 kts 342°
2026-05-05 11:07 5.04193 100.90132 28473 ft 496 kts 342°
2026-05-05 11:07 5.06335 100.89209 28521 ft 496 kts 342°
2026-05-05 11:07 5.10538 100.87393 28673 ft 497 kts 342°
2026-05-05 11:08 5.12681 100.86467 28735 ft 497 kts 342°
2026-05-05 11:08 5.19044 100.83722 28883 ft 499 kts 342°
2026-05-05 11:09 5.25428 100.80964 29062 ft 500 kts 342°
2026-05-05 11:09 5.28623 100.79583 29199 ft 499 kts 342°
2026-05-05 11:09 5.31814 100.78207 29230 ft 501 kts 342°
2026-05-05 11:10 5.38236 100.75435 29378 ft 502 kts 342°
2026-05-05 11:10 5.44646 100.72660 29568 ft 502 kts 342°
2026-05-05 11:11 5.51083 100.69882 29642 ft 504 kts 342°
2026-05-05 11:11 5.54294 100.68493 29761 ft 503 kts 342°
2026-05-05 11:11 5.57508 100.67105 29891 ft 502 kts 342°
2026-05-05 11:12 5.63925 100.64343 30099 ft 500 kts 343°
2026-05-05 11:12 5.67116 100.62969 30219 ft 499 kts 343°
2026-05-05 11:12 5.70307 100.61598 30301 ft 499 kts 343°
2026-05-05 11:13 5.76649 100.58870 30430 ft 499 kts 343°
2026-05-05 11:13 5.83022 100.56119 30621 ft 497 kts 342°
2026-05-05 11:13 5.86200 100.54746 30723 ft 496 kts 343°
2026-05-05 11:14 5.89373 100.53380 30779 ft 496 kts 343°
2026-05-05 11:14 5.95758 100.50629 30882 ft 496 kts 343°
2026-05-05 11:15 6.02102 100.47891 30967 ft 496 kts 343°
2026-05-05 11:15 6.08407 100.45166 31068 ft 496 kts 343°
2026-05-05 11:16 6.14751 100.42421 31170 ft 496 kts 343°
2026-05-05 11:16 6.17923 100.41077 31279 ft 494 kts 346°
2026-05-05 11:16 6.21189 100.40021 31360 ft 492 kts 351°
2026-05-05 11:17 6.27808 100.38122 31318 ft 495 kts 351°
2026-05-05 11:17 6.34449 100.36281 31435 ft 495 kts 351°
2026-05-05 11:18 6.41076 100.34453 31588 ft 493 kts 351°
2026-05-05 11:18 6.47693 100.32629 31637 ft 493 kts 351°
2026-05-05 11:19 6.54311 100.30794 31712 ft 493 kts 351°
2026-05-05 11:19 6.60925 100.28954 31770 ft 493 kts 351°
2026-05-05 11:20 6.67538 100.27133 31894 ft 491 kts 354°
2026-05-05 11:20 6.70887 100.26591 32090 ft 486 kts
2026-05-05 11:20 6.74263 100.26587 32030 ft 486 kts 11°
2026-05-05 11:20 6.77660 100.26863 31795 ft 492 kts 12°
2026-05-05 11:21 6.81068 100.27207 31830 ft 492 kts 13°
2026-05-05 11:21 6.84462 100.27583 31950 ft 490 kts 13°
2026-05-05 11:21 6.87841 100.27980 31997 ft 489 kts 14°
2026-05-05 11:22 6.94556 100.28779 32066 ft 489 kts 14°
2026-05-05 11:22 7.01309 100.29554 32108 ft 488 kts 13°
2026-05-05 11:23 7.08062 100.30308 32132 ft 489 kts 13°
2026-05-05 11:23 7.14812 100.31055 32194 ft 488 kts 13°
2026-05-05 11:24 7.21563 100.31803 32206 ft 488 kts 13°
2026-05-05 11:24 7.28317 100.32548 32221 ft 488 kts 13°
2026-05-05 11:25 7.35070 100.33292 32250 ft 488 kts 13°
2026-05-05 11:25 7.41818 100.34040 32283 ft 488 kts 13°
2026-05-05 11:26 7.48570 100.34789 32285 ft 488 kts 13°
2026-05-05 11:26 7.55345 100.35335 32294 ft 489 kts
2026-05-05 11:27 7.62119 100.35463 32437 ft 486 kts
2026-05-05 11:27 7.68889 100.35193 32634 ft 486 kts 359°
2026-05-05 11:27 7.72256 100.34998 32907 ft 484 kts 359°
2026-05-05 11:28 7.75615 100.34876 33138 ft 482 kts
2026-05-05 11:28 7.78959 100.34841 33328 ft 481 kts
2026-05-05 11:28 7.82313 100.34868 33527 ft 481 kts
2026-05-05 11:28 7.85655 100.34926 33732 ft 480 kts
2026-05-05 11:29 7.88992 100.35006 33890 ft 479 kts
2026-05-05 11:29 7.92325 100.35091 34065 ft 479 kts
2026-05-05 11:29 7.95656 100.35174 34236 ft 478 kts
2026-05-05 11:29 7.98978 100.35256 34396 ft 477 kts
2026-05-05 11:30 8.02256 100.35336 34562 ft 477 kts
2026-05-05 11:30 8.05610 100.35412 34736 ft 476 kts
2026-05-05 11:30 8.08919 100.35488 34894 ft 475 kts
2026-05-05 11:30 8.12176 100.35562 35049 ft 475 kts
2026-05-05 11:31 8.15475 100.35633 35217 ft 474 kts
2026-05-05 11:31 8.18773 100.35707 35369 ft 473 kts
2026-05-05 11:31 8.22065 100.35784 35524 ft 473 kts
2026-05-05 11:31 8.25356 100.35856 35659 ft 473 kts
2026-05-05 11:32 8.28645 100.35927 35785 ft 473 kts
2026-05-05 11:32 8.31929 100.35998 35953 ft 472 kts
2026-05-05 11:32 8.35208 100.36072 36111 ft 471 kts
2026-05-05 11:32 8.38490 100.36145 36282 ft 471 kts
2026-05-05 11:33 8.41760 100.36217 36436 ft 470 kts
2026-05-05 11:33 8.45024 100.36291 36596 ft 469 kts
2026-05-05 11:33 8.48288 100.36369 36737 ft 469 kts
2026-05-05 11:33 8.51541 100.36447 36887 ft 468 kts
2026-05-05 11:34 8.54800 100.36522 37027 ft 467 kts
2026-05-05 11:34 8.58049 100.36596 37161 ft 467 kts
2026-05-05 11:34 8.61291 100.36667 37303 ft 466 kts
2026-05-05 11:34 8.64530 100.36742 37432 ft 466 kts
2026-05-05 11:35 8.67773 100.36814 37562 ft 465 kts
2026-05-05 11:35 8.71006 100.36883 37693 ft 465 kts
2026-05-05 11:35 8.74234 100.36958 37810 ft 464 kts
2026-05-05 11:35 8.77467 100.37034 37930 ft 464 kts
2026-05-05 11:36 8.80697 100.37110 38064 ft 464 kts
2026-05-05 11:36 8.83919 100.37183 38180 ft 463 kts
2026-05-05 11:36 8.87136 100.37254 38281 ft 463 kts
2026-05-05 11:36 8.90361 100.37327 38406 ft 462 kts
2026-05-05 11:37 8.93572 100.37397 38505 ft 462 kts
2026-05-05 11:37 8.99994 100.37539 38666 ft 462 kts
2026-05-05 11:38 9.06429 100.37691 38786 ft 462 kts
2026-05-05 11:38 9.12813 100.37838 38829 ft 462 kts
2026-05-05 11:39 9.19233 100.37990 38832 ft 461 kts
2026-05-05 11:39 9.25640 100.38142 38831 ft 461 kts
2026-05-05 11:40 9.32047 100.38284 38833 ft 461 kts
2026-05-05 11:40 9.38463 100.38430 38831 ft 461 kts
2026-05-05 11:41 9.44870 100.38589 38833 ft 461 kts
2026-05-05 11:41 9.51282 100.38750 38837 ft 460 kts
2026-05-05 11:42 9.57688 100.38896 38828 ft 461 kts
2026-05-05 11:42 9.64100 100.39048 38834 ft 461 kts
2026-05-05 11:43 9.70516 100.39201 38831 ft 462 kts
2026-05-05 11:43 9.76967 100.39354 38835 ft 465 kts
2026-05-05 11:44 9.83458 100.39507 38835 ft 467 kts
2026-05-05 11:44 9.89958 100.39662 38834 ft 466 kts
2026-05-05 11:45 9.96442 100.39813 38833 ft 466 kts
2026-05-05 11:45 10.02886 100.39961 38836 ft 466 kts
2026-05-05 11:46 10.09380 100.40112 38835 ft 468 kts
2026-05-05 11:46 10.15920 100.40275 38836 ft 472 kts
2026-05-05 11:47 10.22490 100.40439 38839 ft 472 kts
2026-05-05 11:47 10.29051 100.40593 38838 ft 471 kts
2026-05-05 11:48 10.38886 100.40827 38833 ft 471 kts
2026-05-05 11:48 10.45440 100.40995 38838 ft 471 kts
2026-05-05 11:49 10.51987 100.41157 38837 ft 471 kts
2026-05-05 11:49 10.58537 100.41312 38834 ft 471 kts
2026-05-05 11:50 10.65091 100.41459 38834 ft 471 kts
2026-05-05 11:50 10.71643 100.41618 38837 ft 471 kts
2026-05-05 11:51 10.78191 100.41778 38835 ft 471 kts
2026-05-05 11:51 10.84742 100.41933 38838 ft 471 kts
2026-05-05 11:52 10.91295 100.42099 38835 ft 471 kts
2026-05-05 11:52 10.96735 100.42231 38835 ft 471 kts
2026-05-05 11:53 11.03289 100.42382 38835 ft 471 kts
2026-05-05 11:53 11.09840 100.42542 38838 ft 471 kts
2026-05-05 11:54 11.16392 100.42693 38833 ft 471 kts
2026-05-05 11:54 11.22948 100.42852 38836 ft 471 kts
2026-05-05 11:55 11.29501 100.43021 38836 ft 471 kts
2026-05-05 11:55 11.36056 100.43192 38834 ft 471 kts
2026-05-05 11:56 11.42613 100.43353 38837 ft 471 kts
2026-05-05 11:56 11.49171 100.43513 38838 ft 471 kts
2026-05-05 11:57 11.55728 100.43672 38838 ft 471 kts
2026-05-05 11:57 11.62277 100.43833 38835 ft 471 kts
2026-05-05 11:58 11.68788 100.43992 38837 ft 471 kts
2026-05-05 11:58 11.75348 100.44154 38834 ft 471 kts
2026-05-05 11:59 11.81902 100.44308 38835 ft 471 kts
2026-05-05 11:59 11.88457 100.44477 38839 ft 471 kts
2026-05-05 12:00 11.94995 100.44641 38837 ft 469 kts
2026-05-05 12:00 12.01527 100.44805 38840 ft 469 kts
2026-05-05 12:01 12.08055 100.44962 38838 ft 469 kts
2026-05-05 12:01 12.14585 100.45126 38838 ft 469 kts
2026-05-05 12:02 12.21107 100.45305 38844 ft 469 kts
2026-05-05 12:02 12.27627 100.45467 38841 ft 467 kts
2026-05-05 12:03 12.34084 100.45633 38835 ft 467 kts
2026-05-05 12:03 12.40576 100.45800 38839 ft 467 kts
2026-05-05 12:04 12.47072 100.45964 38831 ft 467 kts
2026-05-05 12:04 12.53571 100.46123 38832 ft 467 kts
2026-05-05 12:05 12.60066 100.46277 38829 ft 466 kts
2026-05-05 12:05 12.66550 100.46442 38829 ft 466 kts
2026-05-05 12:06 12.73030 100.46604 38822 ft 466 kts
2026-05-05 12:06 12.79512 100.46773 38828 ft 466 kts
2026-05-05 12:07 12.85993 100.46938 38821 ft 466 kts
2026-05-05 12:07 12.92476 100.47101 38817 ft 466 kts
2026-05-05 12:08 12.98949 100.47263 38817 ft 465 kts
2026-05-05 12:08 13.05410 100.47430 38819 ft 464 kts
2026-05-05 12:09 13.11841 100.48001 38821 ft 464 kts
2026-05-05 12:09 13.18243 100.48917 38816 ft 465 kts
2026-05-05 12:10 13.24646 100.49906 38821 ft 465 kts
2026-05-05 12:10 13.31053 100.50898 38823 ft 466 kts
2026-05-05 12:11 13.37476 100.51883 38808 ft 467 kts
2026-05-05 12:11 13.43913 100.52858 38819 ft 467 kts
2026-05-05 12:12 13.50349 100.53830 38820 ft 467 kts
2026-05-05 12:12 13.56776 100.54812 38821 ft 467 kts
2026-05-05 12:13 13.63211 100.55799 38820 ft 467 kts
2026-05-05 12:13 13.69605 100.56772 38824 ft 468 kts
2026-05-05 12:14 13.76073 100.57757 38832 ft 467 kts
2026-05-05 12:14 13.82446 100.58724 38825 ft 466 kts
2026-05-05 12:15 13.88856 100.59657 38818 ft 465 kts
2026-05-05 12:15 13.95319 100.60103 38831 ft 465 kts
2026-05-05 12:16 14.01785 100.60451 38833 ft 465 kts
2026-05-05 12:16 14.08262 100.60773 38811 ft 466 kts
2026-05-05 12:17 14.14734 100.61100 38824 ft 466 kts
2026-05-05 12:17 14.21218 100.61440 38812 ft 466 kts
2026-05-05 12:18 14.27698 100.61771 38822 ft 466 kts
2026-05-05 12:18 14.34172 100.62107 38817 ft 466 kts
2026-05-05 12:19 14.40655 100.62448 38814 ft 466 kts
2026-05-05 12:19 14.47137 100.62788 38827 ft 467 kts
2026-05-05 12:20 14.53620 100.63127 38829 ft 467 kts
2026-05-05 12:20 14.60106 100.63469 38830 ft 467 kts
2026-05-05 12:21 14.66598 100.63811 38819 ft 467 kts
2026-05-05 12:21 14.73084 100.64144 38822 ft 467 kts
2026-05-05 12:22 14.79575 100.64488 38834 ft 468 kts
2026-05-05 12:22 14.86038 100.64827 38822 ft 468 kts
2026-05-05 12:23 14.92542 100.65159 38823 ft 468 kts
2026-05-05 12:23 14.99035 100.65494 38837 ft 467 kts
2026-05-05 12:24 15.05532 100.65832 38824 ft 468 kts
2026-05-05 12:24 15.12028 100.66173 38839 ft 468 kts
2026-05-05 12:25 15.18530 100.66515 38838 ft 468 kts
2026-05-05 12:25 15.25023 100.66894 38840 ft 467 kts
2026-05-05 12:26 15.31346 100.68407 38828 ft 467 kts 18°
2026-05-05 12:26 15.37503 100.70613 38840 ft 469 kts 20°
2026-05-05 12:27 15.43632 100.72959 38831 ft 470 kts 20°
2026-05-05 12:27 15.49778 100.75297 38842 ft 470 kts 20°
2026-05-05 12:28 15.55925 100.77620 38829 ft 470 kts 20°
2026-05-05 12:28 15.62083 100.79924 38831 ft 470 kts 20°
2026-05-05 12:29 15.68233 100.82231 38842 ft 470 kts 20°
2026-05-05 12:29 15.74387 100.84551 38831 ft 470 kts 20°
2026-05-05 12:30 15.80532 100.86872 38849 ft 470 kts 20°
2026-05-05 12:30 15.86680 100.89185 38847 ft 470 kts 20°
2026-05-05 12:31 15.92831 100.91511 38848 ft 470 kts 20°
2026-05-05 12:31 15.98967 100.93836 38848 ft 470 kts 20°
2026-05-05 12:32 16.05123 100.96165 38837 ft 470 kts 20°
2026-05-05 12:32 16.11275 100.98487 38862 ft 470 kts 20°
2026-05-05 12:33 16.17388 101.00802 38848 ft 470 kts 19°
2026-05-05 12:33 16.23537 101.03124 38875 ft 470 kts 20°
2026-05-05 12:34 16.29684 101.05447 38869 ft 470 kts 20°
2026-05-05 12:34 16.35823 101.07776 38890 ft 470 kts 20°
2026-05-05 12:35 16.41979 101.10106 38883 ft 470 kts 19°
2026-05-05 12:35 16.48132 101.12423 38886 ft 470 kts 19°
2026-05-05 12:36 16.54281 101.14744 38886 ft 470 kts 19°
2026-05-05 12:36 16.60434 101.17080 38887 ft 470 kts 19°
2026-05-05 12:37 16.66587 101.19430 38892 ft 470 kts 18°
2026-05-05 12:37 16.72818 101.21456 38893 ft 469 kts 14°
2026-05-05 12:38 16.79118 101.23259 38893 ft 468 kts 14°
2026-05-05 12:38 16.85385 101.25064 38893 ft 467 kts 14°
2026-05-05 12:39 16.90588 101.26597 38895 ft 467 kts 15°
2026-05-05 12:39 16.96842 101.28463 38895 ft 468 kts 15°
2026-05-05 12:40 17.03105 101.30337 38905 ft 468 kts 14°
2026-05-05 12:40 17.09370 101.32205 38908 ft 469 kts 15°
2026-05-05 12:41 17.15641 101.34079 38915 ft 468 kts 15°
2026-05-05 12:41 17.21901 101.35946 38918 ft 468 kts 14°
2026-05-05 12:42 17.28154 101.37807 38914 ft 468 kts 15°
2026-05-05 12:42 17.34412 101.39679 38912 ft 468 kts 14°
2026-05-05 12:43 17.40667 101.41549 38912 ft 468 kts 15°
2026-05-05 12:43 17.46927 101.43429 38904 ft 467 kts 14°
2026-05-05 12:44 17.53178 101.45308 38904 ft 467 kts 13°
2026-05-05 12:44 17.59435 101.47158 38898 ft 467 kts 13°
2026-05-05 12:45 17.65687 101.49012 38898 ft 467 kts 14°
2026-05-05 12:45 17.71896 101.50873 38891 ft 467 kts 14°
2026-05-05 12:46 17.78158 101.52752 38894 ft 467 kts 14°
2026-05-05 12:46 17.84401 101.54618 38885 ft 467 kts 13°
2026-05-05 12:47 17.90657 101.56487 38884 ft 467 kts 13°
2026-05-05 12:47 17.96914 101.58358 38879 ft 467 kts 14°
2026-05-05 12:48 18.03164 101.60230 38881 ft 467 kts 14°
2026-05-05 12:48 18.09414 101.62103 38876 ft 467 kts 13°
2026-05-05 12:49 18.15664 101.63978 38869 ft 467 kts 13°
2026-05-05 12:49 18.21909 101.65853 38867 ft 466 kts 13°
2026-05-05 12:50 18.28143 101.67725 38868 ft 466 kts 13°
2026-05-05 12:50 18.34382 101.69600 38868 ft 466 kts 13°
2026-05-05 12:51 18.40615 101.71476 38868 ft 465 kts 13°
2026-05-05 12:51 18.46836 101.73348 38866 ft 465 kts 13°
2026-05-05 12:52 18.53025 101.75213 38871 ft 465 kts 13°
2026-05-05 12:52 18.59288 101.77101 38870 ft 465 kts 13°
2026-05-05 12:53 18.65470 101.78966 38872 ft 465 kts 13°
2026-05-05 12:53 18.71664 101.80837 38874 ft 465 kts 13°
2026-05-05 12:54 18.80993 101.83657 38881 ft 465 kts 13°
2026-05-05 12:55 18.87218 101.85562 38881 ft 465 kts 15°
2026-05-05 12:55 18.93413 101.87546 38885 ft 466 kts 15°
2026-05-05 12:56 18.99628 101.89494 38888 ft 466 kts 15°
2026-05-05 12:56 19.05848 101.91395 38898 ft 466 kts 15°
2026-05-05 12:57 19.12083 101.93285 38901 ft 466 kts 14°
2026-05-05 12:57 19.18321 101.95175 38906 ft 467 kts 14°
2026-05-05 12:58 19.24562 101.97071 38905 ft 467 kts 14°
2026-05-05 12:58 19.30801 101.98970 38903 ft 467 kts 14°
2026-05-05 12:59 19.37039 102.00869 38902 ft 467 kts 14°
2026-05-05 12:59 19.43286 102.02772 38904 ft 467 kts 14°
2026-05-05 13:00 19.52642 102.05626 38914 ft 467 kts 14°
2026-05-05 13:01 19.65128 102.09439 38905 ft 467 kts 14°
2026-05-05 13:01 19.71371 102.11335 38895 ft 467 kts 14°
2026-05-05 13:02 19.77622 102.13236 38895 ft 468 kts 14°
2026-05-05 13:02 19.83880 102.15148 38893 ft 468 kts 13°
2026-05-05 13:03 19.90264 102.16126 38893 ft 461 kts 357°
2026-05-05 13:03 19.96515 102.15006 38898 ft 455 kts 340°
2026-05-05 13:04 20.02400 102.12696 38895 ft 453 kts 337°
2026-05-05 13:04 20.08232 102.10167 38899 ft 452 kts 336°
2026-05-05 13:05 20.14050 102.07636 38897 ft 452 kts 337°
2026-05-05 13:05 20.19877 102.05134 38907 ft 452 kts 337°
2026-05-05 13:06 20.25709 102.02645 38914 ft 452 kts 337°
2026-05-05 13:06 20.31539 102.00160 38912 ft 451 kts 337°
2026-05-05 13:07 20.37373 101.97671 38918 ft 451 kts 337°
2026-05-05 13:07 20.43206 101.95179 38921 ft 451 kts 337°
2026-05-05 13:08 20.49030 101.92688 38916 ft 451 kts 337°
2026-05-05 13:08 20.54848 101.90180 38912 ft 451 kts 335°
2026-05-05 13:09 20.60636 101.87601 38907 ft 451 kts 335°
2026-05-05 13:09 20.66434 101.85055 38910 ft 451 kts 335°
2026-05-05 13:10 20.72255 101.82544 38914 ft 451 kts 335°
2026-05-05 13:10 20.78089 101.80041 38912 ft 451 kts 335°
2026-05-05 13:11 20.83915 101.77540 38918 ft 451 kts 335°
2026-05-05 13:11 20.89742 101.75033 38914 ft 451 kts 335°
2026-05-05 13:12 20.95527 101.72542 38918 ft 451 kts 335°
2026-05-05 13:12 21.01351 101.70033 38923 ft 451 kts 335°
2026-05-05 13:13 21.07168 101.67523 38929 ft 451 kts 335°
2026-05-05 13:13 21.12999 101.65007 38914 ft 451 kts 335°
2026-05-05 13:14 21.18785 101.62506 38919 ft 451 kts 335°
2026-05-05 13:14 21.24654 101.59989 38913 ft 452 kts 335°
2026-05-05 13:15 21.30497 101.57493 38919 ft 452 kts 335°
2026-05-05 13:15 21.36337 101.54996 38915 ft 452 kts 335°
2026-05-05 13:16 21.42172 101.52496 38923 ft 451 kts 335°
2026-05-05 13:16 21.48000 101.49996 38913 ft 451 kts 335°
2026-05-05 13:17 21.53831 101.47494 38913 ft 451 kts 335°
2026-05-05 13:17 21.59663 101.44990 38909 ft 451 kts 335°
2026-05-05 13:18 21.65497 101.42483 38909 ft 451 kts 335°
2026-05-05 13:18 21.71318 101.39977 38917 ft 451 kts 335°
2026-05-05 13:19 21.77145 101.37467 38913 ft 451 kts 335°
2026-05-05 13:19 21.82965 101.34957 38918 ft 451 kts 335°
2026-05-05 13:20 21.88787 101.32447 38919 ft 451 kts 335°
2026-05-05 13:20 21.94617 101.29932 38921 ft 451 kts 335°
2026-05-05 13:21 22.00454 101.27418 38921 ft 452 kts 335°
2026-05-05 13:21 22.06299 101.24900 38909 ft 453 kts 335°
2026-05-05 13:22 22.12110 101.22395 38927 ft 453 kts 335°
2026-05-05 13:22 22.17963 101.19869 38917 ft 453 kts 335°
2026-05-05 13:23 22.23813 101.17339 38924 ft 453 kts 335°
2026-05-05 13:23 22.29676 101.14804 38925 ft 454 kts 335°
2026-05-05 13:24 22.35473 101.12301 38936 ft 438 kts 335°
2026-05-05 13:24 22.38270 101.11094 38938 ft 427 kts 335°
2026-05-05 13:24 22.40122 101.10295 38954 ft 423 kts 334°
2026-05-05 13:25 22.45571 101.07930 38936 ft 422 kts 334°
2026-05-05 13:25 22.51025 101.05557 38944 ft 423 kts 334°
2026-05-05 13:26 22.56493 101.03180 38942 ft 423 kts 334°
2026-05-05 13:26 22.61924 101.00820 38938 ft 423 kts 334°
2026-05-05 13:27 22.67615 100.99074 38941 ft 429 kts 348°
2026-05-05 13:27 22.73631 100.99146 38952 ft 439 kts
2026-05-05 13:28 22.79444 101.01367 38945 ft 450 kts 24°
2026-05-05 13:28 22.84903 101.04740 38949 ft 453 kts 27°
2026-05-05 13:29 22.90297 101.08299 38947 ft 454 kts 27°
2026-05-05 13:29 22.95696 101.11847 38950 ft 454 kts 27°
2026-05-05 13:30 23.01118 101.15367 38949 ft 453 kts 26°
2026-05-05 13:30 23.06536 101.18867 38951 ft 454 kts 26°
2026-05-05 13:31 23.11968 101.22377 38950 ft 455 kts 26°
2026-05-05 13:31 23.17404 101.25896 38948 ft 454 kts 26°
2026-05-05 13:32 23.22831 101.29412 38952 ft 454 kts 26°
2026-05-05 13:32 23.28215 101.32905 38951 ft 454 kts 26°
2026-05-05 13:33 23.33633 101.36424 38970 ft 454 kts 26°
2026-05-05 13:33 23.39057 101.39949 38956 ft 453 kts 26°
2026-05-05 13:34 23.44467 101.43466 38953 ft 453 kts 26°
2026-05-05 13:34 23.49879 101.46990 38960 ft 454 kts 26°
2026-05-05 13:35 23.55290 101.50519 38960 ft 454 kts 26°
2026-05-05 13:35 23.60708 101.54055 38955 ft 454 kts 26°
2026-05-05 13:36 23.66132 101.57598 38956 ft 454 kts 26°
2026-05-05 13:36 23.71555 101.61143 38949 ft 455 kts 26°
2026-05-05 13:37 23.76984 101.64695 38945 ft 455 kts 26°
2026-05-05 13:37 23.82411 101.68255 38947 ft 455 kts 26°
2026-05-05 13:38 23.87843 101.71812 38941 ft 454 kts 26°
2026-05-05 13:38 23.93255 101.75365 38944 ft 453 kts 26°
2026-05-05 13:39 23.98654 101.78915 38946 ft 453 kts 26°
2026-05-05 13:39 24.04054 101.82479 38936 ft 453 kts 26°
2026-05-05 13:40 24.09456 101.86048 38932 ft 454 kts 26°
2026-05-05 13:40 24.14865 101.89629 38938 ft 454 kts 26°
2026-05-05 13:41 24.20234 101.93191 38947 ft 454 kts 26°
2026-05-05 13:41 24.25625 101.96770 38947 ft 453 kts 25°
2026-05-05 13:42 24.31023 102.00355 38947 ft 453 kts 26°
2026-05-05 13:42 24.36416 102.03941 38947 ft 453 kts 26°
2026-05-05 13:43 24.41799 102.07523 38956 ft 452 kts 26°
2026-05-05 13:43 24.47172 102.11103 38958 ft 451 kts 26°
2026-05-05 13:44 24.52541 102.14683 38912 ft 451 kts 26°
2026-05-05 13:44 24.57911 102.18265 38913 ft 452 kts 26°
2026-05-05 13:45 24.63272 102.21849 38928 ft 451 kts 26°
2026-05-05 13:45 24.68625 102.25429 38925 ft 450 kts 26°
2026-05-05 13:46 24.73967 102.29006 38924 ft 450 kts 26°
2026-05-05 13:46 24.79310 102.32589 38922 ft 450 kts 26°
2026-05-05 13:47 24.84666 102.36182 38918 ft 450 kts 26°
2026-05-05 13:47 24.90007 102.39769 38923 ft 450 kts 26°
2026-05-05 13:48 24.95345 102.43357 38926 ft 449 kts 26°
2026-05-05 13:48 25.00677 102.46946 38915 ft 449 kts 26°
2026-05-05 13:49 25.06001 102.50533 38929 ft 448 kts 26°
2026-05-05 13:49 25.11462 102.53759 38931 ft 444 kts 21°
2026-05-05 13:50 25.17001 102.56780 38930 ft 444 kts 20°
2026-05-05 13:50 25.22562 102.59768 38937 ft 444 kts 20°
2026-05-05 13:51 25.28124 102.62760 38943 ft 444 kts 20°
2026-05-05 13:51 25.33674 102.65756 38925 ft 444 kts 20°
2026-05-05 13:52 25.39225 102.68760 38921 ft 444 kts 20°
2026-05-05 13:52 25.44740 102.71747 38924 ft 443 kts 20°
2026-05-05 13:53 25.50279 102.74751 38918 ft 443 kts 20°
2026-05-05 13:53 25.55817 102.77758 38924 ft 443 kts 20°
2026-05-05 13:54 25.61340 102.80759 38925 ft 442 kts 20°
2026-05-05 13:54 25.66855 102.83759 38925 ft 441 kts 20°
2026-05-05 13:55 25.72370 102.86761 38911 ft 442 kts 19°
2026-05-05 13:55 25.77890 102.89770 38928 ft 442 kts 19°
2026-05-05 13:56 25.83411 102.92782 38923 ft 442 kts 19°
2026-05-05 13:56 25.88933 102.95798 38914 ft 442 kts 19°
2026-05-05 13:57 25.94452 102.98815 38912 ft 443 kts 19°
2026-05-05 13:57 25.99981 103.01841 38906 ft 443 kts 19°
2026-05-05 13:58 26.05510 103.04870 38902 ft 443 kts 19°
2026-05-05 13:58 26.11045 103.07906 38897 ft 444 kts 20°
2026-05-05 13:59 26.19384 103.12483 38890 ft 444 kts 19°
2026-05-05 14:00 26.26744 103.16537 38881 ft 442 kts 19°
2026-05-05 14:00 26.33156 103.20070 38875 ft 442 kts 19°
2026-05-05 14:01 26.38666 103.23105 38862 ft 442 kts 19°
2026-05-05 14:01 26.44175 103.26145 38858 ft 442 kts 19°
2026-05-05 14:02 26.49684 103.29191 38853 ft 442 kts 19°
2026-05-05 14:02 26.55181 103.32242 38869 ft 442 kts 19°
2026-05-05 14:03 26.60703 103.35316 38848 ft 443 kts 19°
2026-05-05 14:03 26.66216 103.38391 38847 ft 443 kts 19°
2026-05-05 14:04 26.71739 103.41471 38841 ft 443 kts 19°
2026-05-05 14:04 26.77261 103.44555 38842 ft 444 kts 19°
2026-05-05 14:05 26.82785 103.47643 38851 ft 443 kts 19°
2026-05-05 14:05 26.88302 103.50731 38829 ft 444 kts 19°
2026-05-05 14:06 26.93833 103.53830 38825 ft 444 kts 19°
2026-05-05 14:06 26.99354 103.56926 38828 ft 444 kts 19°
2026-05-05 14:07 27.04887 103.60017 38821 ft 444 kts 19°
2026-05-05 14:07 27.10376 103.63111 38820 ft 444 kts 19°
2026-05-05 14:08 27.15908 103.66228 38822 ft 445 kts 19°
2026-05-05 14:08 27.21434 103.69344 38816 ft 444 kts 19°
2026-05-05 14:09 27.26956 103.72459 38812 ft 444 kts 19°
2026-05-05 14:09 27.32465 103.75560 38807 ft 443 kts 18°
2026-05-05 14:10 27.38046 103.78508 38808 ft 442 kts 17°
2026-05-05 14:10 27.43645 103.81367 38790 ft 442 kts 16°
2026-05-05 14:11 27.48304 103.83759 38787 ft 442 kts 17°
2026-05-05 14:11 27.53891 103.86669 38784 ft 442 kts 17°
2026-05-05 14:12 27.59453 103.89584 38785 ft 440 kts 17°
2026-05-05 14:12 27.65002 103.92500 38782 ft 440 kts 17°
2026-05-05 14:13 27.70547 103.95412 38790 ft 440 kts 17°
2026-05-05 14:13 27.76085 103.98322 38766 ft 439 kts 17°
2026-05-05 14:14 27.81623 104.01239 38767 ft 439 kts 17°
2026-05-05 14:14 27.87152 104.04155 38759 ft 439 kts 17°
2026-05-05 14:15 27.92696 104.07079 38777 ft 440 kts 17°
2026-05-05 14:15 27.98243 104.10007 38754 ft 440 kts 17°
2026-05-05 14:16 28.03796 104.12943 38748 ft 440 kts 17°
2026-05-05 14:16 28.09331 104.15875 38748 ft 439 kts 17°
2026-05-05 14:17 28.14832 104.18788 38745 ft 440 kts 17°
2026-05-05 14:17 28.20382 104.21730 38733 ft 440 kts 17°
2026-05-05 14:18 28.25919 104.24676 38732 ft 440 kts 17°
2026-05-05 14:18 28.31461 104.27629 38728 ft 440 kts 17°
2026-05-05 14:19 28.37094 104.30139 38713 ft 427 kts
2026-05-05 14:19 28.42865 104.30805 38713 ft 412 kts 352°
2026-05-05 14:20 28.48591 104.30606 38720 ft 411 kts 349°
2026-05-05 14:20 28.54302 104.30247 38710 ft 411 kts 349°
2026-05-05 14:21 28.59982 104.29897 38711 ft 412 kts 349°
2026-05-05 14:21 28.65704 104.29572 38707 ft 412 kts 349°
2026-05-05 14:22 28.68577 104.29414 38553 ft 412 kts 350°
2026-05-05 14:22 28.71435 104.29259 38317 ft 411 kts 350°
2026-05-05 14:22 28.74285 104.29105 38037 ft 408 kts 350°
2026-05-05 14:22 28.77119 104.28952 37766 ft 406 kts 350°
2026-05-05 14:23 28.79930 104.28798 37531 ft 404 kts 350°
2026-05-05 14:23 28.82741 104.28645 37272 ft 403 kts 350°
2026-05-05 14:23 28.85531 104.28492 36999 ft 401 kts 350°
2026-05-05 14:23 28.88310 104.28340 36751 ft 399 kts 350°
2026-05-05 14:24 28.91076 104.28189 36500 ft 397 kts 350°
2026-05-05 14:24 28.93827 104.28038 36250 ft 395 kts 350°
2026-05-05 14:24 28.96558 104.27888 35998 ft 393 kts 350°
2026-05-05 14:24 28.99293 104.27737 35579 ft 393 kts 350°
2026-05-05 14:25 29.02013 104.27588 35226 ft 391 kts 350°
2026-05-05 14:25 29.04717 104.27440 34904 ft 387 kts 350°
2026-05-05 14:25 29.07399 104.27294 34609 ft 384 kts 350°
2026-05-05 14:25 29.10055 104.27148 34280 ft 381 kts 350°
2026-05-05 14:26 29.12697 104.27003 33959 ft 379 kts 350°
2026-05-05 14:26 29.15289 104.26860 33663 ft 377 kts 350°
2026-05-05 14:26 29.17901 104.26716 33334 ft 375 kts 351°
2026-05-05 14:26 29.20497 104.26572 33031 ft 373 kts 351°
2026-05-05 14:27 29.23080 104.26430 32760 ft 371 kts 351°
2026-05-05 14:27 29.25655 104.26320 32507 ft 371 kts 354°
2026-05-05 14:27 29.28246 104.26516 32263 ft 375 kts
2026-05-05 14:27 29.30824 104.27032 31865 ft 378 kts
2026-05-05 14:28 29.33427 104.27634 31205 ft 386 kts
2026-05-05 14:28 29.36075 104.28263 30623 ft 392 kts
2026-05-05 14:28 29.38763 104.28903 30039 ft 397 kts
2026-05-05 14:28 29.41483 104.29549 29401 ft 401 kts
2026-05-05 14:29 29.44231 104.30200 28754 ft 405 kts
2026-05-05 14:29 29.47001 104.30856 28111 ft 409 kts
2026-05-05 14:29 29.49804 104.31519 27477 ft 412 kts
2026-05-05 14:29 29.52618 104.32185 26867 ft 416 kts
2026-05-05 14:30 29.55464 104.32858 26261 ft 419 kts
2026-05-05 14:30 29.58323 104.33535 25681 ft 421 kts
2026-05-05 14:30 29.61170 104.34209 25099 ft 424 kts
2026-05-05 14:30 29.64061 104.34893 24542 ft 426 kts
2026-05-05 14:31 29.66980 104.35496 23986 ft 426 kts
2026-05-05 14:31 29.69918 104.35441 23440 ft 421 kts 347°
2026-05-05 14:31 29.72693 104.34454 22835 ft 416 kts 331°
2026-05-05 14:31 29.75076 104.32613 22180 ft 412 kts 315°
2026-05-05 14:32 29.77003 104.30192 21553 ft 410 kts 307°
2026-05-05 14:32 29.78775 104.27631 20943 ft 409 kts 306°
2026-05-05 14:32 29.80527 104.25051 20344 ft 409 kts 306°
2026-05-05 14:32 29.82408 104.22591 19742 ft 411 kts 316°
2026-05-05 14:33 29.84791 104.20748 19051 ft 417 kts 333°
2026-05-05 14:33 29.87503 104.19523 18373 ft 420 kts 339°
2026-05-05 14:33 29.90277 104.18441 17664 ft 421 kts 340°
2026-05-05 14:33 29.93065 104.17373 16908 ft 422 kts 340°
2026-05-05 14:34 29.95850 104.16307 16168 ft 422 kts 341°
2026-05-05 14:34 29.98737 104.15667 15448 ft 426 kts 356°
2026-05-05 14:34 30.01677 104.16064 14736 ft 428 kts 15°
2026-05-05 14:34 30.04461 104.17232 14246 ft 422 kts 22°
2026-05-05 14:35 30.07141 104.18521 13957 ft 411 kts 22°
2026-05-05 14:35 30.09746 104.19778 13671 ft 401 kts 22°
2026-05-05 14:35 30.12308 104.21001 13236 ft 396 kts 22°
2026-05-05 14:35 30.14842 104.22201 12712 ft 393 kts 22°
2026-05-05 14:36 30.17370 104.23390 12105 ft 392 kts 22°
2026-05-05 14:36 30.19901 104.24577 11449 ft 393 kts 22°
2026-05-05 14:36 30.22447 104.25771 10724 ft 396 kts 22°
2026-05-05 14:36 30.24998 104.26984 10026 ft 397 kts 25°
2026-05-05 14:37 30.27543 104.28244 9298 ft 398 kts 25°
2026-05-05 14:37 30.30095 104.29491 8530 ft 398 kts 25°
2026-05-05 14:37 30.32647 104.30714 7784 ft 396 kts 24°
2026-05-05 14:37 30.35188 104.31913 7158 ft 392 kts 24°
2026-05-05 14:38 30.37654 104.33073 6688 ft 369 kts 24°
2026-05-05 14:38 30.39947 104.34160 6135 ft 346 kts 25°
2026-05-05 14:38 30.42117 104.35197 5466 ft 329 kts 25°
2026-05-05 14:38 30.44167 104.36174 5057 ft 307 kts 25°
2026-05-05 14:39 30.46063 104.37066 4908 ft 281 kts 25°
2026-05-05 14:39 30.47804 104.37875 4905 ft 260 kts 24°
2026-05-05 14:39 30.49442 104.38634 4897 ft 247 kts 25°
2026-05-05 14:39 30.51004 104.39357 4894 ft 238 kts 24°
2026-05-05 14:40 30.52535 104.40069 4895 ft 237 kts 25°
2026-05-05 14:40 30.54020 104.40759 4909 ft 221 kts 24°
2026-05-05 14:40 30.55374 104.41385 4909 ft 205 kts 25°
2026-05-05 14:40 30.56670 104.41982 4900 ft 198 kts 25°
2026-05-05 14:41 30.57871 104.42679 4898 ft 186 kts 39°
2026-05-05 14:41 30.58697 104.43750 4898 ft 176 kts 66°
2026-05-05 14:41 30.58990 104.45098 4892 ft 173 kts 94°
2026-05-05 14:41 30.58754 104.46451 4895 ft 172 kts 113°
2026-05-05 14:42 30.58314 104.47721 4889 ft 166 kts 116°
2026-05-05 14:42 30.57861 104.48935 4896 ft 163 kts 117°
2026-05-05 14:42 30.57412 104.50145 4891 ft 163 kts 116°
2026-05-05 14:42 30.56961 104.51356 4892 ft 163 kts 118°
2026-05-05 14:43 30.56356 104.52457 4884 ft 161 kts 136°
2026-05-05 14:43 30.55455 104.53204 4887 ft 159 kts 160°
2026-05-05 14:43 30.54384 104.53438 4892 ft 155 kts 184°
2026-05-05 14:43 30.53370 104.53180 4896 ft 146 kts 201°
2026-05-05 14:44 30.52429 104.52745 4898 ft 147 kts 204°
2026-05-05 14:44 30.51459 104.52351 4897 ft 148 kts 199°
2026-05-05 14:44 30.50479 104.51971 4894 ft 149 kts 202°
2026-05-05 14:44 30.49512 104.51541 4890 ft 149 kts 204°
2026-05-05 14:45 30.48548 104.51091 4774 ft 150 kts 204°
2026-05-05 14:45 30.47584 104.50634 4585 ft 149 kts 204°
2026-05-05 14:45 30.46626 104.50175 4371 ft 149 kts 204°
2026-05-05 14:45 30.45675 104.49718 4155 ft 148 kts 204°
2026-05-05 14:46 30.44724 104.49261 3977 ft 148 kts 204°
2026-05-05 14:46 30.43773 104.48805 3785 ft 148 kts 204°
2026-05-05 14:46 30.42821 104.48347 3592 ft 148 kts 204°
2026-05-05 14:46 30.41872 104.47891 3402 ft 148 kts 204°
2026-05-05 14:47 30.40916 104.47433 3215 ft 148 kts 204°
2026-05-05 14:47 30.39978 104.46982 3037 ft 148 kts 204°
2026-05-05 14:47 30.39025 104.46531 2845 ft 148 kts 200°
2026-05-05 14:47 30.38072 104.46079 2656 ft 148 kts 200°
2026-05-05 14:48 30.37117 104.45621 2455 ft 148 kts 200°
2026-05-05 14:48 30.36162 104.45162 2288 ft 149 kts 200°
2026-05-05 14:48 30.35206 104.44704 2096 ft 148 kts 201°
2026-05-05 14:48 30.34258 104.44250 1891 ft 147 kts 202°
2026-05-05 14:49 30.33314 104.43798 1711 ft 146 kts 202°
2026-05-05 14:49 30.32380 104.43350 1515 ft 145 kts 204°
2026-05-05 14:49 30.31481 104.42906 1434 ft 134 kts 205°
2026-05-05 14:49 30.30805 104.42576 1439 ft 60 kts 202°
2026-05-05 14:50 30.30551 104.42537 1440 ft 0 kts 175°
2026-05-05 14:51 30.30542 104.42538 1440 ft 2 kts 175°
2026-05-05 14:51 30.30517 104.42541 1440 ft 5 kts 174°
2026-05-05 14:51 30.30478 104.42546 1440 ft 7 kts 173°
2026-05-05 14:51 30.30426 104.42552 1440 ft 8 kts 175°
2026-05-05 14:52 30.30415 104.42553 1440 ft 0 kts 175°
2026-05-05 14:52 30.30406 104.42554 1440 ft 3 kts 176°
2026-05-05 14:52 30.30358 104.42555 1440 ft 11 kts 180°
2026-05-05 14:52 30.30262 104.42534 1441 ft 17 kts 199°
2026-05-05 14:53 30.30146 104.42463 1441 ft 21 kts 236°
2026-05-05 14:53 30.30157 104.42410 1441 ft 7 kts 322°
2026-05-05 14:53 30.30227 104.42394 1441 ft 14 kts 356°
2026-05-05 14:53 30.30342 104.42396 1441 ft 16 kts 11°
2026-05-05 14:54 30.30446 104.42472 1440 ft 14 kts 51°
2026-05-05 14:54 30.30463 104.42542 1440 ft 12 kts 93°
2026-05-05 14:54 30.30487 104.42655 1440 ft 17 kts 80°
2026-05-05 14:54 30.30554 104.42780 1438 ft 21 kts 26°
2026-05-05 14:55 30.30701 104.42852 1437 ft 22 kts 32°
2026-05-05 14:55 30.30703 104.42985 1437 ft 20 kts 114°
2026-05-05 14:55 30.30646 104.43152 1437 ft 24 kts 110°
2026-05-05 14:55 30.30656 104.43248 1436 ft 7 kts 28°
2026-05-05 14:56 30.30717 104.43255 1436 ft 11 kts 330°
2026-05-05 14:56 30.30733 104.43235 1436 ft 0 kts 307°
2026-05-05 14:56 30.30739 104.43224 1436 ft 5 kts 303°
2026-05-05 14:56 30.30764 104.43160 1436 ft 12 kts 288°
2026-05-05 14:57 30.30788 104.43041 1436 ft 18 kts 285°
2026-05-05 14:57 30.30856 104.42944 1436 ft 15 kts 354°
2026-05-05 14:57 30.30972 104.42987 1435 ft 19 kts 39°
2026-05-05 14:57 30.30969 104.43114 1435 ft 19 kts 109°
2026-05-05 14:58 30.30969 104.43214 1435 ft 7 kts 39°
2026-05-05 14:58 30.31032 104.43254 1434 ft 14 kts 24°
2026-05-05 14:58 30.31144 104.43308 1433 ft 21 kts 22°
2026-05-05 14:58 30.31250 104.43352 1433 ft 7 kts 353°
2026-05-05 14:59 30.31272 104.43327 1433 ft 5 kts 303°
2026-05-05 14:59 30.31280 104.43311 1433 ft 1 kts 299°
2026-05-05 14:59 30.31286 104.43298 1433 ft 2 kts 297°
2026-05-05 14:59 30.31292 104.43285 1433 ft 0 kts 295°
2026-05-05 15:00 30.31295 104.43276 1433 ft 1 kts 294°
2026-05-05 15:00 30.31296 104.43273 1433 ft 1 kts 294°
2026-05-05 15:00 30.31301 104.43261 1433 ft 0 kts 294°
2026-05-05 15:56 30.31300 104.43263 1432 ft 3 kts 296°
2026-05-05 15:57 30.31297 104.43273 1433 ft 3 kts 294°
2026-05-05 15:57 30.31287 104.43294 1433 ft 3 kts 308°
2026-05-05 15:57 30.31273 104.43311 1433 ft 3 kts 322°
2026-05-05 15:57 30.31257 104.43323 1433 ft 3 kts 335°
2026-05-05 15:58 30.31246 104.43329 1433 ft 1 kts 338°
2026-05-05 15:58 30.31244 104.43330 1433 ft 0 kts 338°
2026-05-05 16:00 30.31245 104.43329 1433 ft 0 kts 339°
2026-05-05 16:00 30.31279 104.43343 1433 ft 10 kts 34°
2026-05-05 16:00 30.31359 104.43404 1432 ft 16 kts 22°
2026-05-05 16:01 30.31436 104.43362 1432 ft 12 kts 300°
2026-05-05 16:01 30.31464 104.43264 1432 ft 14 kts 265°
2026-05-05 16:01 30.31442 104.43140 1432 ft 17 kts 257°
2026-05-05 16:01 30.31344 104.43048 1433 ft 21 kts 205°
2026-05-05 16:02 30.31198 104.42976 1434 ft 25 kts 201°
2026-05-05 16:02 30.31034 104.42902 1435 ft 25 kts 201°
2026-05-05 16:02 30.30880 104.42827 1436 ft 23 kts 202°
2026-05-05 16:02 30.30736 104.42762 1437 ft 22 kts 201°
2026-05-05 16:03 30.30601 104.42698 1438 ft 20 kts 202°
2026-05-05 16:03 30.30476 104.42637 1440 ft 19 kts 203°
2026-05-05 16:03 30.30360 104.42575 1440 ft 18 kts 201°
2026-05-05 16:03 30.30245 104.42529 1441 ft 17 kts 198°
2026-05-05 16:04 30.30137 104.42480 1441 ft 17 kts 202°
2026-05-05 16:04 30.30029 104.42430 1442 ft 16 kts 203°
2026-05-05 16:04 30.29926 104.42380 1443 ft 16 kts 203°
2026-05-05 16:04 30.29828 104.42332 1440 ft 15 kts 203°
2026-05-05 16:05 30.29732 104.42286 1442 ft 15 kts 201°
2026-05-05 16:05 30.29637 104.42245 1445 ft 14 kts 199°
2026-05-05 16:05 30.29547 104.42206 1444 ft 14 kts 203°
2026-05-05 16:05 30.29460 104.42163 1445 ft 14 kts 203°
2026-05-05 16:06 30.29374 104.42121 1447 ft 13 kts 203°
2026-05-05 16:06 30.29290 104.42079 1446 ft 13 kts 203°
2026-05-05 16:06 30.29207 104.42039 1446 ft 13 kts 203°
2026-05-05 16:06 30.29124 104.41998 1449 ft 13 kts 203°
2026-05-05 16:07 30.29043 104.41955 1447 ft 12 kts 214°
2026-05-05 16:07 30.29016 104.41871 1451 ft 11 kts 276°
2026-05-05 16:07 30.29057 104.41796 1446 ft 12 kts 329°
2026-05-05 16:07 30.29135 104.41797 1449 ft 12 kts 18°
2026-05-05 16:08 30.29171 104.41814 1447 ft 0 kts 22°
2026-05-05 16:08 30.29175 104.41816 1447 ft 8 kts 22°
2026-05-05 16:08 30.29451 104.41944 1446 ft 76 kts 22°
2026-05-05 16:08 30.30133 104.42264 1441 ft 135 kts 22°
2026-05-05 16:09 30.31165 104.42746 1435 ft 184 kts 20°
2026-05-05 16:09 30.32461 104.43331 1714 ft 211 kts 23°
2026-05-05 16:09 30.33859 104.44091 2190 ft 234 kts 26°
2026-05-05 16:09 30.35445 104.44676 3002 ft 242 kts
2026-05-05 16:10 30.37112 104.44683 4004 ft 235 kts 358°
2026-05-05 16:10 30.38757 104.44630 4346 ft 253 kts 359°
2026-05-05 16:10 30.40562 104.44942 4377 ft 268 kts 25°
2026-05-05 16:10 30.42172 104.46052 4555 ft 272 kts 30°
2026-05-05 16:11 30.43829 104.47140 5039 ft 277 kts 30°
2026-05-05 16:11 30.48970 104.50482 6856 ft 290 kts 30°
2026-05-05 16:12 30.50752 104.51627 7441 ft 295 kts 30°
2026-05-05 16:12 30.54413 104.53973 8668 ft 306 kts 30°
2026-05-05 16:13 30.60199 104.57680 10149 ft 336 kts 30°
2026-05-05 16:13 30.62297 104.59026 10373 ft 354 kts 30°
2026-05-05 16:13 30.64503 104.60441 10576 ft 371 kts 30°
2026-05-05 16:14 30.69183 104.63510 11032 ft 398 kts 35°
2026-05-05 16:14 30.72484 104.68507 11822 ft 400 kts 76°
2026-05-05 16:15 30.72174 104.74770 12755 ft 391 kts 118°
2026-05-05 16:15 30.68473 104.79097 13636 ft 382 kts 159°
2026-05-05 16:16 30.63290 104.79427 14339 ft 382 kts 198°
2026-05-05 16:16 30.58535 104.76591 15117 ft 388 kts 210°
2026-05-05 16:17 30.53823 104.73433 15852 ft 394 kts 210°
2026-05-05 16:17 30.51429 104.71861 16227 ft 398 kts 210°
2026-05-05 16:18 30.46561 104.68700 16941 ft 404 kts 210°
2026-05-05 16:18 30.44101 104.67111 17288 ft 407 kts 210°
2026-05-05 16:18 30.39117 104.63900 17958 ft 413 kts 210°
2026-05-05 16:19 30.36594 104.62277 18254 ft 416 kts 210°
2026-05-05 16:19 30.34059 104.60647 18559 ft 418 kts 210°
2026-05-05 16:19 30.28955 104.57370 19171 ft 421 kts 210°
2026-05-05 16:20 30.23804 104.54067 19747 ft 425 kts 210°
2026-05-05 16:20 30.18606 104.50738 20293 ft 429 kts 210°
2026-05-05 16:21 30.13358 104.47381 20825 ft 433 kts 210°
2026-05-05 16:22 30.05430 104.42317 21651 ft 438 kts 211°
2026-05-05 16:22 30.00035 104.38877 22202 ft 442 kts 211°
2026-05-05 16:23 29.94630 104.35434 22747 ft 446 kts 211°
2026-05-05 16:23 29.91945 104.33726 23004 ft 447 kts 211°
2026-05-05 16:23 29.86474 104.30248 23497 ft 450 kts 211°
2026-05-05 16:24 29.83729 104.28505 23717 ft 451 kts 211°
2026-05-05 16:24 29.80968 104.26752 23940 ft 453 kts 211°
2026-05-05 16:24 29.75439 104.23246 24397 ft 455 kts 211°
2026-05-05 16:25 29.72658 104.21485 24622 ft 457 kts 211°
2026-05-05 16:25 29.66976 104.18104 25042 ft 462 kts 208°
2026-05-05 16:25 29.64046 104.16551 25277 ft 463 kts 207°
2026-05-05 16:26 29.58174 104.13462 25719 ft 466 kts 208°
2026-05-05 16:26 29.53265 104.10874 26094 ft 468 kts 208°
2026-05-05 16:27 29.50306 104.09313 26320 ft 469 kts 208°
2026-05-05 16:27 29.46338 104.07220 26618 ft 470 kts 208°
2026-05-05 16:27 29.44365 104.06180 26767 ft 471 kts 208°
2026-05-05 16:27 29.41327 104.04722 26987 ft 475 kts 202°
2026-05-05 16:28 29.38118 104.03742 27204 ft 481 kts 193°
2026-05-05 16:28 29.34771 104.03365 27383 ft 487 kts 186°
2026-05-05 16:28 29.31368 104.03281 27559 ft 490 kts 184°
2026-05-05 16:28 29.27951 104.03318 27764 ft 492 kts 182°
2026-05-05 16:29 29.24522 104.03405 27969 ft 493 kts 182°
2026-05-05 16:29 29.21086 104.03502 28171 ft 495 kts 182°
2026-05-05 16:29 29.17641 104.03591 28359 ft 496 kts 182°
2026-05-05 16:29 29.14187 104.03666 28548 ft 497 kts 183°
2026-05-05 16:30 29.10728 104.03728 28747 ft 498 kts 183°
2026-05-05 16:30 29.07268 104.03782 29013 ft 497 kts 183°
2026-05-05 16:30 29.03813 104.03832 29261 ft 497 kts 183°
2026-05-05 16:30 29.00360 104.03879 29536 ft 496 kts 183°
2026-05-05 16:31 28.96953 104.03926 29823 ft 495 kts 183°
2026-05-05 16:31 28.93472 104.03973 30070 ft 494 kts 183°
2026-05-05 16:31 28.90081 104.04020 30314 ft 493 kts 183°
2026-05-05 16:31 28.86661 104.04066 30559 ft 492 kts 184°
2026-05-05 16:32 28.83243 104.04113 30818 ft 490 kts 184°
2026-05-05 16:32 28.79834 104.04161 31052 ft 489 kts 184°
2026-05-05 16:32 28.76429 104.04209 31305 ft 488 kts 184°
2026-05-05 16:32 28.73037 104.04257 31566 ft 487 kts 184°
2026-05-05 16:33 28.69650 104.04306 31796 ft 486 kts 184°
2026-05-05 16:33 28.66276 104.04355 32015 ft 485 kts 184°
2026-05-05 16:33 28.62909 104.04328 32165 ft 482 kts 188°
2026-05-05 16:33 28.59599 104.03885 32313 ft 477 kts 196°
2026-05-05 16:34 28.56419 104.02918 32585 ft 470 kts 204°
2026-05-05 16:34 28.53453 104.01438 32858 ft 462 kts 212°
2026-05-05 16:34 28.50658 103.99659 33117 ft 459 kts 214°
2026-05-05 16:34 28.47933 103.97789 33367 ft 457 kts 216°
2026-05-05 16:35 28.45242 103.95873 33595 ft 455 kts 216°
2026-05-05 16:35 28.42569 103.93947 33845 ft 454 kts 217°
2026-05-05 16:35 28.39904 103.92028 34061 ft 453 kts 217°
2026-05-05 16:35 28.37235 103.90119 34213 ft 453 kts 217°
2026-05-05 16:36 28.34558 103.88215 34372 ft 454 kts 217°
2026-05-05 16:36 28.31876 103.86320 34562 ft 454 kts 217°
2026-05-05 16:36 28.29194 103.84428 34749 ft 454 kts 217°
2026-05-05 16:36 28.26509 103.82540 34883 ft 455 kts 216°
2026-05-05 16:37 28.23816 103.80652 35027 ft 455 kts 217°
2026-05-05 16:37 28.21121 103.78764 35172 ft 456 kts 217°
2026-05-05 16:37 28.18421 103.76873 35338 ft 456 kts 217°
2026-05-05 16:37 28.15722 103.74983 35536 ft 456 kts 217°
2026-05-05 16:38 28.13060 103.73118 35723 ft 455 kts 217°
2026-05-05 16:38 28.10372 103.71236 35896 ft 455 kts 217°
2026-05-05 16:38 28.07674 103.69348 36008 ft 455 kts 217°
2026-05-05 16:38 28.04977 103.67461 36084 ft 457 kts 217°
2026-05-05 16:39 28.02272 103.65569 36188 ft 457 kts 217°
2026-05-05 16:39 27.99566 103.63680 36447 ft 455 kts 217°
2026-05-05 16:39 27.96877 103.61804 36633 ft 454 kts 217°
2026-05-05 16:39 27.94189 103.59929 36801 ft 454 kts 217°
2026-05-05 16:40 27.91499 103.58052 36908 ft 454 kts 218°
2026-05-05 16:40 27.88810 103.56178 37050 ft 454 kts 218°
2026-05-05 16:40 27.86119 103.54303 37192 ft 455 kts 218°
2026-05-05 16:40 27.83421 103.52425 37367 ft 454 kts 218°
2026-05-05 16:41 27.80733 103.50556 37496 ft 454 kts 218°
2026-05-05 16:41 27.78041 103.48686 37684 ft 453 kts 218°
2026-05-05 16:41 27.75365 103.46828 37931 ft 451 kts 218°
2026-05-05 16:41 27.72693 103.44974 38093 ft 451 kts 218°
2026-05-05 16:42 27.70021 103.43120 38200 ft 451 kts 218°
2026-05-05 16:42 27.67349 103.41266 38309 ft 451 kts 218°
2026-05-05 16:42 27.64677 103.39414 38427 ft 451 kts 219°
2026-05-05 16:42 27.62005 103.37563 38509 ft 451 kts 219°
2026-05-05 16:43 27.56662 103.33864 38731 ft 450 kts 218°
2026-05-05 16:43 27.53995 103.32021 38866 ft 449 kts 218°
2026-05-05 16:43 27.51333 103.30180 38970 ft 449 kts 218°
2026-05-05 16:44 27.45997 103.26543 39135 ft 451 kts 215°
2026-05-05 16:44 27.40224 103.23617 39333 ft 456 kts 210°
2026-05-05 16:45 27.37282 103.22281 39444 ft 457 kts 209°
2026-05-05 16:45 27.34366 103.20992 39532 ft 456 kts 208°
2026-05-05 16:45 27.28438 103.18409 39631 ft 456 kts 208°
2026-05-05 16:46 27.22536 103.15819 39788 ft 455 kts 209°
2026-05-05 16:46 27.16657 103.13219 39857 ft 453 kts 209°
2026-05-05 16:47 27.10814 103.10636 39866 ft 451 kts 208°
2026-05-05 16:47 27.04971 103.08059 39880 ft 451 kts 208°
2026-05-05 16:48 26.99123 103.05482 39878 ft 452 kts 208°
2026-05-05 16:48 26.93268 103.02909 39901 ft 452 kts 208°
2026-05-05 16:49 26.87398 103.00354 39865 ft 451 kts 208°
2026-05-05 16:49 26.81566 102.97777 39907 ft 451 kts 208°
2026-05-05 16:50 26.75697 102.95199 39901 ft 454 kts 208°
2026-05-05 16:50 26.69821 102.92627 39925 ft 453 kts 208°
2026-05-05 16:51 26.63949 102.90060 39942 ft 453 kts 208°
2026-05-05 16:51 26.58121 102.87501 39929 ft 452 kts 208°
2026-05-05 16:52 26.52266 102.84943 39963 ft 452 kts 208°
2026-05-05 16:52 26.46384 102.82373 39958 ft 455 kts 208°
2026-05-05 16:53 26.40489 102.79803 39982 ft 454 kts 208°
2026-05-05 16:53 26.34598 102.77241 39975 ft 454 kts 208°
2026-05-05 16:54 26.28728 102.74693 40003 ft 452 kts 208°
2026-05-05 16:54 26.22845 102.72139 40009 ft 454 kts 208°
2026-05-05 16:55 26.16939 102.69652 40030 ft 457 kts 203°
2026-05-05 16:55 26.10651 102.68188 40024 ft 464 kts 196°
2026-05-05 16:56 26.04246 102.67128 40049 ft 466 kts 194°
2026-05-05 16:56 25.97809 102.66142 40048 ft 467 kts 194°
2026-05-05 16:57 25.91371 102.65145 40071 ft 467 kts 194°
2026-05-05 16:57 25.84943 102.64130 40069 ft 466 kts 194°
2026-05-05 16:58 25.78516 102.63113 40075 ft 467 kts 194°
2026-05-05 16:58 25.72085 102.62091 40071 ft 467 kts 194°
2026-05-05 16:59 25.65657 102.61067 40075 ft 467 kts 194°
2026-05-05 16:59 25.59269 102.60054 40073 ft 467 kts 194°
2026-05-05 17:00 25.52791 102.59030 40077 ft 467 kts 193°
2026-05-05 17:00 25.46365 102.58014 40092 ft 467 kts 194°
2026-05-05 17:01 25.39964 102.57001 40079 ft 468 kts 194°
2026-05-05 17:01 25.33528 102.55988 40096 ft 467 kts 194°
2026-05-05 17:02 25.27097 102.54977 40097 ft 467 kts 194°
2026-05-05 17:02 25.20672 102.53966 40103 ft 467 kts 194°
2026-05-05 17:03 25.14246 102.52956 40102 ft 467 kts 194°
2026-05-05 17:03 25.07994 102.51350 40100 ft 456 kts 207°
2026-05-05 17:04 25.02413 102.48201 40103 ft 449 kts 216°
2026-05-05 17:04 24.97075 102.44638 40093 ft 449 kts 217°
2026-05-05 17:05 24.91811 102.41032 40094 ft 449 kts 217°
2026-05-05 17:05 24.86496 102.37425 40097 ft 448 kts 217°
2026-05-05 17:06 24.81169 102.33842 40094 ft 448 kts 216°
2026-05-05 17:06 24.75847 102.30275 40074 ft 449 kts 216°
2026-05-05 17:07 24.70509 102.26700 40074 ft 449 kts 216°
2026-05-05 17:07 24.65169 102.23128 40075 ft 449 kts 216°
2026-05-05 17:08 24.59840 102.19568 40074 ft 448 kts 216°
2026-05-05 17:08 24.54510 102.16009 40056 ft 448 kts 217°
2026-05-05 17:09 24.49177 102.12451 40057 ft 449 kts 216°
2026-05-05 17:09 24.43833 102.08887 40052 ft 450 kts 216°
2026-05-05 17:10 24.38473 102.05319 40053 ft 451 kts 216°
2026-05-05 17:10 24.33113 102.01756 40033 ft 450 kts 216°
2026-05-05 17:11 24.27765 101.98200 40036 ft 449 kts 216°
2026-05-05 17:11 24.22422 101.94652 40012 ft 449 kts 216°
2026-05-05 17:12 24.17070 101.91104 40027 ft 450 kts 216°
2026-05-05 17:12 24.11700 101.87548 40005 ft 451 kts 216°
2026-05-05 17:13 24.06334 101.83995 40012 ft 451 kts 216°
2026-05-05 17:13 24.00959 101.80445 40005 ft 451 kts 216°
2026-05-05 17:14 23.95584 101.76902 40001 ft 451 kts 216°
2026-05-05 17:14 23.90246 101.73397 40001 ft 450 kts 216°
2026-05-05 17:15 23.84865 101.69869 40003 ft 452 kts 216°
2026-05-05 17:15 23.79479 101.66341 40002 ft 451 kts 216°
2026-05-05 17:16 23.74975 101.63392 39999 ft 450 kts 216°
2026-05-05 17:16 23.69613 101.59885 40003 ft 450 kts 216°
2026-05-05 17:17 23.64239 101.56370 39998 ft 451 kts 216°
2026-05-05 17:17 23.58891 101.52878 39998 ft 451 kts 215°
2026-05-05 17:18 23.53465 101.49340 39993 ft 451 kts 215°
2026-05-05 17:18 23.48114 101.45854 39996 ft 451 kts 215°
2026-05-05 17:19 23.42719 101.42342 39987 ft 451 kts 215°
2026-05-05 17:19 23.37327 101.38835 39986 ft 451 kts 215°
2026-05-05 17:20 23.31938 101.35333 39972 ft 452 kts 215°
2026-05-05 17:20 23.26538 101.31828 39976 ft 452 kts 215°
2026-05-05 17:21 23.21131 101.28323 39966 ft 452 kts 215°
2026-05-05 17:22 23.13027 101.23075 39967 ft 452 kts 215°
2026-05-05 17:22 23.07641 101.19589 39955 ft 451 kts 215°
2026-05-05 17:23 23.02226 101.16088 39948 ft 452 kts 214°
2026-05-05 17:23 22.96842 101.12611 39955 ft 453 kts 214°
2026-05-05 17:24 22.91400 101.09100 39953 ft 453 kts 214°
2026-05-05 17:24 22.86014 101.05630 39955 ft 453 kts 214°
2026-05-05 17:25 22.80593 101.02141 39955 ft 453 kts 214°
2026-05-05 17:25 22.74751 100.99472 39952 ft 462 kts 198°
2026-05-05 17:26 22.68311 100.98891 39948 ft 473 kts 178°
2026-05-05 17:26 22.65057 100.99538 39950 ft 479 kts 167°
2026-05-05 17:26 22.61877 101.00692 39950 ft 483 kts 163°
2026-05-05 17:27 22.55621 101.03384 39949 ft 486 kts 161°
2026-05-05 17:27 22.49333 101.06216 39950 ft 486 kts 161°
2026-05-05 17:28 22.43127 101.08963 39945 ft 485 kts 161°
2026-05-05 17:28 22.36864 101.11688 39943 ft 485 kts 161°
2026-05-05 17:29 22.30593 101.14400 39935 ft 486 kts 162°
2026-05-05 17:29 22.24314 101.17112 39935 ft 486 kts 162°
2026-05-05 17:30 22.18042 101.19821 39927 ft 486 kts 162°
2026-05-05 17:30 22.11768 101.22529 39927 ft 485 kts 162°
2026-05-05 17:31 22.05499 101.25232 39929 ft 485 kts 161°
2026-05-05 17:31 21.99232 101.27932 39932 ft 484 kts 161°
2026-05-05 17:32 21.92976 101.30626 39920 ft 484 kts 161°
2026-05-05 17:32 21.86710 101.33326 39923 ft 486 kts 161°
2026-05-05 17:33 21.80423 101.36038 39921 ft 487 kts 161°
2026-05-05 17:33 21.74132 101.38750 39917 ft 487 kts 161°
2026-05-05 17:34 21.67878 101.41444 39923 ft 487 kts 161°
2026-05-05 17:34 21.61596 101.44146 39922 ft 487 kts 161°
2026-05-05 17:35 21.55298 101.46852 39927 ft 487 kts 161°
2026-05-05 17:35 21.49001 101.49555 39928 ft 487 kts 161°
2026-05-05 17:36 21.42715 101.52251 39923 ft 487 kts 161°
2026-05-05 17:36 21.36420 101.54948 39914 ft 486 kts 161°
2026-05-05 17:37 21.30139 101.57637 39931 ft 486 kts 161°
2026-05-05 17:37 21.23863 101.60322 39930 ft 486 kts 161°
2026-05-05 17:38 21.17578 101.63012 39932 ft 486 kts 161°
2026-05-05 17:38 21.11344 101.65700 39934 ft 486 kts 161°
2026-05-05 17:39 21.05034 101.68428 39928 ft 486 kts 161°
2026-05-05 17:39 20.98797 101.71120 39935 ft 488 kts 161°
2026-05-05 17:40 20.92495 101.73835 39929 ft 488 kts 161°
2026-05-05 17:40 20.86194 101.76547 39929 ft 488 kts 161°
2026-05-05 17:41 20.79897 101.79255 39936 ft 488 kts 161°
2026-05-05 17:41 20.73596 101.81962 39929 ft 488 kts 161°
2026-05-05 17:42 20.67293 101.84667 39929 ft 488 kts 161°
2026-05-05 17:42 20.60998 101.87367 39935 ft 488 kts 161°
2026-05-05 17:43 20.54704 101.90064 39939 ft 488 kts 161°
2026-05-05 17:43 20.48404 101.92761 39930 ft 488 kts 161°
2026-05-05 17:44 20.42107 101.95454 39936 ft 488 kts 161°
2026-05-05 17:44 20.35811 101.98145 39924 ft 487 kts 160°
2026-05-05 17:45 20.29528 102.00827 39933 ft 486 kts 160°
2026-05-05 17:45 20.23253 102.03504 39929 ft 486 kts 160°
2026-05-05 17:46 20.16973 102.06179 39918 ft 487 kts 160°
2026-05-05 17:46 20.10686 102.08856 39912 ft 487 kts 161°
2026-05-05 17:47 20.04392 102.11535 39912 ft 487 kts 160°
2026-05-05 17:47 19.98104 102.14208 39918 ft 486 kts 161°
2026-05-05 17:48 19.91616 102.15901 39925 ft 478 kts 179°
2026-05-05 17:48 19.85077 102.15337 39923 ft 469 kts 196°
2026-05-05 17:49 19.78780 102.13561 39916 ft 468 kts 199°
2026-05-05 17:49 19.72529 102.11579 39927 ft 470 kts 200°
2026-05-05 17:50 19.66300 102.09615 39929 ft 469 kts 199°
2026-05-05 17:50 19.60036 102.07682 39943 ft 469 kts 199°
2026-05-05 17:51 19.53766 102.05767 39936 ft 469 kts 199°
2026-05-05 17:51 19.47498 102.03858 39943 ft 469 kts 199°
2026-05-05 17:52 19.41227 102.01947 39946 ft 469 kts 199°
2026-05-05 17:52 19.34953 102.00036 39948 ft 469 kts 199°
2026-05-05 17:53 19.28673 101.98125 39948 ft 470 kts 199°
2026-05-05 17:53 19.22387 101.96213 39950 ft 470 kts 199°
2026-05-05 17:54 19.16098 101.94302 39953 ft 470 kts 199°
2026-05-05 17:54 19.09822 101.92396 39947 ft 470 kts 199°
2026-05-05 17:55 19.03539 101.90490 39954 ft 470 kts 199°
2026-05-05 17:55 18.97261 101.88587 39948 ft 469 kts 199°
2026-05-05 17:56 18.90988 101.86687 39948 ft 469 kts 199°
2026-05-05 17:56 18.84717 101.84789 39945 ft 469 kts 199°
2026-05-05 17:57 18.78443 101.82891 39944 ft 469 kts 199°
2026-05-05 17:57 18.72170 101.80995 39938 ft 469 kts 198°
2026-05-05 17:58 18.65880 101.79095 39938 ft 470 kts 198°
2026-05-05 17:58 18.59628 101.77208 39933 ft 470 kts 198°
2026-05-05 17:59 18.55424 101.75941 39933 ft 470 kts 198°